Fairmont, MN

5:03 PM CDT on July 20, 2017 (GMT -0500)
Fairmont Municipal

Weather History for KFRM - January, 2014

Change the Weather History Date:

Wednesday, January 22, 2014

  Actual Average Record
Temperature  
Mean Temperature 2 °F -  
Max Temperature 12 °F 27 °F 48 °F (1981)
Min Temperature -7 °F 9 °F -20 °F (1963)
Degree Days  
Heating Degree Days 62    
Moisture  
Dew Point -14 °F    
Average Humidity 49    
Maximum Humidity 92    
Minimum Humidity 20    
Precipitation  
Precipitation 0.00 in - - ()
Sea Level Pressure  
Sea Level Pressure 30.16 in    
Wind  
Wind Speed 18 mph (NW)    
Max Wind Speed 31 mph    
Max Gust Speed 40 mph    
Visibility 6 miles    
Events      
Averages and records for this station are not official NWS values.
T = Trace of Precipitation, MM = Missing Value Source: NWS Daily Summary

Daily Weather History Graph

Daily Weather History Graph

Search for Another Location

Airport or City:

Trip Planner

Search our weather history database for the weather conditions in past years. The results will help you decide how hot, cold, wet, or windy it might be!

Date:

Astronomy

Jan. 22, 2014 Rise Set
Actual Time 7:43 AM CST 5:15 PM CST
Civil Twilight 7:12 AM CST 5:46 PM CST
Nautical Twilight 6:37 AM CST 6:21 PM CST
Astronomical Twilight 6:03 AM CST 6:55 PM CST
Moon No Moon Rise 10:32 AM CST (1/22)
Length of Visible Light 10h 34m
Length of Day
9h 32m
Waning Gibbous, 65% of the Moon is Illuminated
Jan 22
Waning Gibbous
Jan 23
Last Quarter
Jan 30
New
Feb 6
First Quarter
Feb 14
Full

Hourly Weather History & Observations

Time (CST) Temp. Windchill Dew Point Humidity Pressure Visibility Wind Dir Wind Speed Gust Speed Precip Events Conditions
12:15 AM 10.4 °F -2.4 °F -14.8 °F 31% 29.98 in 10.0 mi WSW 9.2 mph 16.1 mph N/A   Overcast
12:35 AM 12.2 °F -1.0 °F -18.4 °F 24% 29.97 in 10.0 mi WSW 10.4 mph - N/A   Overcast
12:55 AM 12.2 °F -0.2 °F -11.2 °F 34% 29.96 in 10.0 mi West 9.2 mph - N/A   Overcast
1:15 AM 12.2 °F -0.2 °F -9.4 °F 38% 29.96 in 10.0 mi WNW 9.2 mph - N/A   Overcast
1:35 AM 12.2 °F -1.8 °F -4.0 °F 48% 29.95 in 10.0 mi WNW 11.5 mph - N/A   Overcast
1:55 AM 12.2 °F -4.3 °F 10.4 °F 92% 29.95 in 10.0 mi WNW 16.1 mph 20.7 mph N/A   Overcast
2:15 AM 12.2 °F -5.3 °F -5.8 °F 45% 29.95 in 10.0 mi NW 18.4 mph 25.3 mph N/A   Overcast
2:35 AM 12.2 °F -7.1 °F -18.4 °F 24% 29.96 in 4.0 mi NW 23.0 mph 27.6 mph N/A   Overcast
2:55 AM 12.2 °F -5.8 °F -0.4 °F 57% 29.97 in 7.0 mi NW 19.6 mph 24.2 mph N/A   Overcast
3:15 AM 10.4 °F -8.2 °F -18.4 °F 26% 29.97 in 4.0 mi NW 19.6 mph 26.5 mph N/A   Overcast
3:35 AM 10.4 °F -7.7 °F -16.6 °F 29% 29.98 in 4.0 mi NNW 18.4 mph 32.2 mph N/A   Overcast
3:55 AM 10.4 °F -10.7 °F -7.6 °F 44% 29.99 in 3.0 mi NNW 26.5 mph 32.2 mph N/A   Overcast
4:15 AM 8.6 °F -11.4 °F -7.6 °F 48% 29.99 in 5.0 mi NW 21.9 mph 26.5 mph N/A   Mostly Cloudy
4:35 AM 8.6 °F -13.4 °F -2.2 °F 62% 30.00 in 1.8 mi NW 27.6 mph 34.5 mph N/A   Overcast
4:55 AM 6.8 °F -12.4 °F -5.8 °F 56% 30.01 in 7.0 mi NW 18.4 mph 23.0 mph N/A   Mostly Cloudy
5:15 AM 6.8 °F -11.8 °F -5.8 °F 56% 30.01 in 9.0 mi NW 17.3 mph 24.2 mph N/A   Overcast
5:35 AM 6.8 °F -10.0 °F -2.2 °F 67% 30.01 in 5.0 mi NNW 13.8 mph - N/A   Overcast
5:55 AM 6.8 °F -8.6 °F -2.2 °F 67% 30.01 in 10.0 mi NW 11.5 mph - N/A   Overcast
6:15 AM 6.8 °F -7.8 °F -0.4 °F 72% 30.01 in 10.0 mi NW 10.4 mph - N/A   Overcast
6:35 AM 6.8 °F -6.9 °F -0.4 °F 72% 30.01 in 10.0 mi NW 9.2 mph - N/A   Overcast
6:55 AM 8.6 °F -3.7 °F -14.8 °F 34% 30.01 in 10.0 mi NW 8.1 mph - N/A   Overcast
7:15 AM 8.6 °F -3.7 °F -25.6 °F 20% 30.01 in 10.0 mi WNW 8.1 mph - N/A   Overcast
7:35 AM 8.6 °F -4.7 °F -18.4 °F 28% 30.02 in 10.0 mi WNW 9.2 mph - N/A   Overcast
7:55 AM 8.6 °F -5.5 °F -16.6 °F 31% 30.02 in 10.0 mi WNW 10.4 mph - N/A   Overcast
8:15 AM 10.4 °F -7.2 °F -13.0 °F 34% 30.03 in 7.0 mi NW 17.3 mph - N/A   Overcast
8:35 AM 10.4 °F -7.7 °F -9.4 °F 41% 30.03 in 1.8 mi NW 18.4 mph - N/A   Overcast
8:55 AM 10.4 °F -8.6 °F -7.6 °F 44% 30.04 in 4.0 mi NW 20.7 mph 26.5 mph N/A   Overcast
9:15 AM 10.4 °F -9.5 °F -5.8 °F 48% 30.05 in 2.0 mi NW 23.0 mph 29.9 mph N/A   Overcast
9:35 AM 10.4 °F -6.6 °F -2.2 °F 57% 30.05 in 5.0 mi NW 16.1 mph 25.3 mph N/A   Overcast
9:55 AM 10.4 °F -9.1 °F -2.2 °F 57% 30.05 in 3.0 mi NW 21.9 mph 26.5 mph N/A   Mostly Cloudy
10:15 AM 10.4 °F -11.4 °F - N/A% 30.06 in 1.8 mi NW 28.8 mph 33.4 mph N/A   Overcast
10:35 AM 10.4 °F -9.5 °F -23.8 °F 20% 30.08 in 0.8 mi NW 23.0 mph 34.5 mph N/A   Overcast
10:55 AM 8.6 °F -14.5 °F -18.4 °F 28% 30.09 in 0.8 mi NW 31.1 mph 39.1 mph N/A   Overcast
11:15 AM 8.6 °F -12.3 °F -22.0 °F 24% 30.10 in 1.0 mi NW 24.2 mph 35.7 mph N/A   Overcast
11:35 AM 6.8 °F -15.5 °F -22.0 °F 26% 30.11 in 1.8 mi NW 26.5 mph 36.8 mph N/A   Overcast
11:55 AM 3.2 °F -20.3 °F -23.8 °F 28% 30.11 in 1.2 mi NW 26.5 mph 35.7 mph N/A   Overcast
12:15 PM 3.2 °F -20.7 °F -22.0 °F 30% 30.12 in 1.5 mi NW 27.6 mph 36.8 mph N/A   Overcast
12:35 PM 1.4 °F -23.2 °F -23.8 °F 30% 30.12 in 1.0 mi NW 27.6 mph 36.8 mph N/A   Overcast
12:55 PM 1.4 °F -23.2 °F -22.0 °F 33% 30.13 in 0.8 mi NW 27.6 mph 40.3 mph N/A   Overcast
1:15 PM 1.4 °F -21.9 °F -22.0 °F 33% 30.13 in 2.0 mi NW 24.2 mph 32.2 mph N/A   Overcast
1:35 PM 1.4 °F -23.5 °F -20.2 °F 36% 30.14 in 1.2 mi NW 28.8 mph 40.3 mph N/A   Overcast
1:55 PM -0.4 °F -26.4 °F -18.4 °F 43% 30.15 in 0.5 mi NW 29.9 mph 36.8 mph N/A   Overcast
2:15 PM -0.4 °F -26.4 °F -16.6 °F 46% 30.16 in 0.8 mi NW 29.9 mph 38.0 mph N/A   Overcast
2:35 PM -2.2 °F -27.1 °F -18.4 °F 46% 30.18 in 1.2 mi NW 25.3 mph 34.5 mph N/A   Overcast
2:55 PM -2.2 °F -28.4 °F -16.6 °F 50% 30.19 in 1.2 mi NW 28.8 mph 36.8 mph N/A   Overcast
3:15 PM -2.2 °F -25.7 °F -16.6 °F 50% 30.21 in 3.0 mi NW 21.9 mph 32.2 mph N/A   Overcast
3:35 PM -2.2 °F -27.6 °F -16.6 °F 50% 30.22 in 2.5 mi NW 26.5 mph 34.5 mph N/A   Overcast
3:55 PM -2.2 °F -27.1 °F -16.6 °F 50% 30.24 in 1.5 mi NW 25.3 mph 32.2 mph N/A   Overcast
4:15 PM -4.0 °F -29.6 °F -14.8 °F 60% 30.25 in 1.2 mi NW 25.3 mph 35.7 mph N/A   Overcast
4:35 PM -4.0 °F -30.4 °F -14.8 °F 60% 30.27 in 1.5 mi NW 27.6 mph 34.5 mph N/A   Overcast
4:55 PM -4.0 °F -30.0 °F -16.6 °F 55% 30.28 in 1.2 mi NW 26.5 mph 29.9 mph N/A   Overcast
5:15 PM -4.0 °F -31.3 °F -16.6 °F 55% 30.29 in 1.8 mi NW 29.9 mph 38.0 mph N/A   Overcast
5:35 PM -5.8 °F -32.0 °F -16.6 °F 60% 30.30 in 1.8 mi NW 25.3 mph 32.2 mph N/A   Overcast
5:55 PM -5.8 °F -31.5 °F -16.6 °F 60% 30.32 in 8.0 mi NW 24.2 mph 32.2 mph N/A   Overcast
6:15 PM -5.8 °F -32.9 °F -16.6 °F 60% 30.33 in 7.0 mi NW 27.6 mph 33.4 mph N/A   Overcast
6:35 PM -5.8 °F -29.9 °F -16.6 °F 60% 30.34 in 5.0 mi NW 20.7 mph 28.8 mph N/A   Overcast
6:55 PM -5.8 °F -30.5 °F -16.6 °F 60% 30.35 in 9.0 mi NW 21.9 mph 32.2 mph N/A   Overcast
7:15 PM -5.8 °F -32.4 °F -16.6 °F 60% 30.36 in 8.0 mi NW 26.5 mph 33.4 mph N/A   Overcast
7:35 PM -5.8 °F -32.4 °F -18.4 °F 55% 30.37 in 10.0 mi NW 26.5 mph 32.2 mph N/A   Overcast
7:55 PM -7.6 °F -34.8 °F -16.6 °F 65% 30.38 in 7.0 mi NW 26.5 mph 34.5 mph N/A   Overcast
8:15 PM -7.6 °F -30.5 °F -18.4 °F 59% 30.40 in 10.0 mi NW 17.3 mph 31.1 mph N/A   Overcast
8:35 PM -7.6 °F -31.7 °F -18.4 °F 59% 30.41 in 10.0 mi NW 19.6 mph - N/A   Overcast
8:55 PM -7.6 °F -31.1 °F -16.6 °F 65% 30.43 in 10.0 mi NW 18.4 mph 31.1 mph N/A   Overcast
9:15 PM -7.6 °F -32.3 °F -16.6 °F 65% 30.44 in 10.0 mi NW 20.7 mph 28.8 mph N/A   Overcast
9:35 PM -7.6 °F -32.9 °F -16.6 °F 65% 30.44 in 10.0 mi NW 21.9 mph 25.3 mph N/A   Overcast
9:55 PM -7.6 °F -32.3 °F -18.4 °F 59% 30.45 in 10.0 mi NW 20.7 mph 28.8 mph N/A   Overcast
10:15 PM -7.6 °F -33.9 °F -18.4 °F 59% 30.46 in 10.0 mi NW 24.2 mph 28.8 mph N/A   Overcast
10:35 PM -7.6 °F -32.3 °F -18.4 °F 59% 30.47 in 10.0 mi NW 20.7 mph 27.6 mph N/A   Overcast
10:55 PM -7.6 °F -30.5 °F -18.4 °F 59% 30.48 in 10.0 mi NW 17.3 mph 27.6 mph N/A   Overcast
11:15 PM -7.6 °F -29.8 °F -18.4 °F 59% 30.49 in 10.0 mi NW 16.1 mph 25.3 mph N/A   Overcast
11:35 PM -7.6 °F -31.7 °F -18.4 °F 59% 30.50 in 6.0 mi NW 19.6 mph 26.5 mph N/A   Overcast
11:55 PM -7.6 °F -31.1 °F -18.4 °F 59% 30.51 in 7.0 mi NW 18.4 mph 23.0 mph N/A   Overcast